Friday Harbor, WA

1:20 AM PDT on October 18, 2017 (GMT -0700)
Friday Harbor

Weather History for KFHR - October, 2010

Change the Weather History Date:

Monday, October 25, 2010

  Actual Average Record
Temperature  
Mean Temperature 50 °F -  
Max Temperature 54 °F 52 °F 62 °F (2015)
Min Temperature 48 °F 39 °F 33 °F (2007)
Degree Days  
Heating Degree Days 14    
Moisture  
Dew Point 46 °F    
Average Humidity 86    
Maximum Humidity 93    
Minimum Humidity 71    
Precipitation  
Precipitation 0.22 in - - ()
Sea Level Pressure  
Sea Level Pressure 29.56 in    
Wind  
Wind Speed 11 mph (SSE)    
Max Wind Speed 20 mph    
Max Gust Speed 30 mph    
Visibility 10 miles    
Events Rain    
Averages and records for this station are not official NWS values.
T = Trace of Precipitation, MM = Missing Value Source: NWS Daily Summary

Daily Weather History Graph

Daily Weather History Graph

Search for Another Location

Airport or City:

Trip Planner

Search our weather history database for the weather conditions in past years. The results will help you decide how hot, cold, wet, or windy it might be!

Date:

Astronomy

Oct. 25, 2010 Rise Set
Actual Time 7:47 AM PDT 6:04 PM PDT
Civil Twilight 7:15 AM PDT 6:36 PM PDT
Nautical Twilight 6:38 AM PDT 7:12 PM PDT
Astronomical Twilight 6:02 AM PDT 7:49 PM PDT
Moon 7:17 PM PDT (10/25) 10:54 AM PDT (10/25)
Length of Visible Light 11h 21m
Length of Day
10h 16m
Waning Gibbous, 93% of the Moon is Illuminated
Oct 25
Waning Gibbous
Oct 30
Last Quarter
Nov 5
New
Nov 13
First Quarter
Nov 21
Full

Hourly Weather History & Observations

Time (PDT) Temp. Dew Point Humidity Pressure Visibility Wind Dir Wind Speed Gust Speed Precip Events Conditions
12:53 AM 50.0 °F 45.0 °F 83% 29.43 in 10.0 mi ESE 12.7 mph 19.6 mph N/A   Overcast
1:53 AM 50.0 °F 45.0 °F 83% 29.42 in 10.0 mi ESE 15.0 mph - N/A   Overcast
2:53 AM 50.0 °F 45.0 °F 83% 29.42 in 10.0 mi SE 17.3 mph 29.9 mph N/A   Overcast
3:40 AM 50.0 °F 46.4 °F 87% 29.44 in 10.0 mi SE 16.1 mph 25.3 mph 0.00 in Rain Light Rain
3:53 AM 50.0 °F 46.0 °F 86% 29.44 in 10.0 mi SE 19.6 mph 24.2 mph 0.01 in Rain Light Rain
4:53 AM 50.0 °F 46.9 °F 89% 29.45 in 10.0 mi SSE 9.2 mph 17.3 mph 0.03 in Rain Light Rain
5:07 AM 50.0 °F 46.4 °F 87% 29.45 in 10.0 mi SSE 11.5 mph - 0.00 in Rain Light Rain
5:53 AM 48.9 °F 46.0 °F 90% 29.47 in 10.0 mi SSE 9.2 mph 18.4 mph 0.01 in Rain Light Rain
6:53 AM 48.9 °F 46.9 °F 93% 29.50 in 7.0 mi SSE 6.9 mph - 0.05 in Rain Light Rain
7:21 AM 48.2 °F 46.4 °F 93% 29.50 in 7.0 mi SSE 10.4 mph - 0.02 in Rain Light Rain
7:43 AM 50.0 °F 46.4 °F 87% 29.51 in 10.0 mi SSE 11.5 mph 19.6 mph 0.02 in Rain Light Rain
7:53 AM 50.0 °F 46.9 °F 89% 29.52 in 10.0 mi SE 10.4 mph - 0.02 in Rain Light Rain
8:53 AM 50.0 °F 46.9 °F 89% 29.53 in 10.0 mi SSE 9.2 mph - 0.02 in Rain Light Rain
9:23 AM 50.0 °F 46.4 °F 87% 29.54 in 10.0 mi South 8.1 mph - 0.01 in Rain Light Rain
9:53 AM 50.0 °F 48.0 °F 93% 29.55 in 10.0 mi SSE 11.5 mph 17.3 mph 0.01 in Rain Light Rain
10:27 AM 51.8 °F 48.2 °F 88% 29.56 in 10.0 mi SSE 11.5 mph - 0.00 in Rain Light Rain
10:53 AM 52.0 °F 48.9 °F 89% 29.57 in 10.0 mi SSE 10.4 mph - 0.01 in Rain Light Rain
11:33 AM 51.8 °F 48.2 °F 88% 29.59 in 9.0 mi South 8.1 mph - 0.01 in Rain Light Rain
12:53 PM 53.1 °F 51.1 °F 93% 29.60 in 10.0 mi South 5.8 mph - 0.02 in Rain Light Rain
1:53 PM 53.1 °F 50.0 °F 89% 29.61 in 10.0 mi SSE 5.8 mph - 0.00 in Rain Light Rain
2:53 PM 51.1 °F 46.0 °F 83% 29.63 in 10.0 mi South 5.8 mph - 0.01 in Rain Light Rain
3:53 PM 50.0 °F 43.0 °F 77% 29.64 in 10.0 mi SSW 8.1 mph - 0.01 in Rain Light Rain
4:53 PM 50.0 °F 43.0 °F 77% 29.66 in 10.0 mi SSW 10.4 mph 19.6 mph 0.00 in Rain Light Rain
5:53 PM 50.0 °F 41.0 °F 71% 29.66 in 10.0 mi South 6.9 mph - 0.00 in   Mostly Cloudy
6:53 PM 48.9 °F 41.0 °F 74% 29.68 in 10.0 mi South 6.9 mph - 0.00 in   Scattered Clouds
7:53 PM 48.0 °F 43.0 °F 83% 29.70 in 10.0 mi South 4.6 mph - 0.01 in   Overcast
8:53 PM 48.9 °F 44.1 °F 83% 29.70 in 10.0 mi SSE 8.1 mph - 0.00 in Rain Light Rain
9:53 PM 48.0 °F 44.1 °F 86% 29.71 in 10.0 mi SSE 5.8 mph - 0.00 in Rain Light Rain
10:53 PM 48.0 °F 44.1 °F 86% 29.73 in 10.0 mi SSE 10.4 mph - 0.01 in Rain Light Rain
11:53 PM 48.0 °F 44.1 °F 86% 29.73 in 10.0 mi SSE 6.9 mph - 0.00 in   Overcast